Powrót do katalogu

FENGYUN 1C DEB

AktywnySSO
NORAD 38163·DEBRIS·🇨🇳 China

Wystrzelony May 10, 1999 z Taiyuan Satellite Launch Center

Loading…

Następne Przeloty (najbliższe 24 godziny)

TLE

NieaktualneSource: Space-Track

Epoka: Aug 29, 2026, 19:59 UTC

1 38163U 99025ERL 26241.83284782  .00001006  00000-0  61989-3 0  9996
2 38163  99.1047 285.1026 0074778 238.4004 120.9851 14.06498083281977

Śledź FENGYUN 1C DEB w czasie rzeczywistym z AllMySat

Download on the App Store